This is the latest recevied weather packets stored in our database for station/object W5ZYX. If no packets are shown the sender has not sent any weather packets the latest 10 day(s).
| Time | Temp. | Humidity | Pressure | Rain* | Wind** | Luminosity | Snow |
|---|---|---|---|---|---|---|---|
| 1777521338 | 18.89° C | 94% | 1012.5 hPa | 0.25 mm | - | - | - |
| 1777521038 | 18.89° C | 94% | 1012.8 hPa | 0.25 mm | - | - | - |
| 1777520754 | 18.89° C | 94% | 1013.3 hPa | 0.25 mm | - | - | - |
| 1777520437 | 18.89° C | 94% | 1013.4 hPa | 0.25 mm | - | - | - |
| 1777520139 | 18.89° C | 94% | 1013.5 hPa | 0.25 mm | - | - | - |
| 1777519857 | 18.89° C | 94% | 1013.7 hPa | 0.25 mm | - | - | - |
| 1777519536 | 18.89° C | 94% | 1013.8 hPa | 0.25 mm | - | - | - |
| 1777519236 | 18.89° C | 94% | 1013.8 hPa | 0.25 mm | - | - | - |
| 1777518951 | 18.89° C | 94% | 1013.9 hPa | 0 mm | - | - | - |
| 1777518636 | 18.89° C | 94% | 1014 hPa | 0 mm | - | - | - |
| 1777518336 | 18.89° C | 94% | 1014 hPa | 0.25 mm | - | - | - |
| 1777518058 | 18.89° C | 94% | 1013.9 hPa | 1.02 mm | - | - | - |
| 1777517735 | 18.89° C | 94% | 1013.4 hPa | 1.52 mm | - | - | - |
| 1777517439 | 18.89° C | 94% | 1013.3 hPa | 1.52 mm | - | - | - |
| 1777517151 | 18.89° C | 94% | 1013.2 hPa | 1.52 mm | - | - | - |
| 1777516839 | 19.44° C | 94% | 1013.1 hPa | 1.52 mm | - | - | - |
| 1777516539 | 19.44° C | 94% | 1012.9 hPa | 1.52 mm | - | - | - |
| 1777516276 | 19.44° C | 93% | 1012.8 hPa | 1.52 mm | - | - | - |
| 1777515939 | 19.44° C | 94% | 1012.6 hPa | 1.52 mm | - | - | - |
| 1777515638 | 19.44° C | 94% | 1012.8 hPa | 1.52 mm | - | - | - |
| 1777515353 | 19.44° C | 94% | 1012.6 hPa | 1.52 mm | - | - | - |
| 1777515039 | 19.44° C | 93% | 1012.2 hPa | 1.52 mm | - | - | - |
| 1777514741 | 19.44° C | 93% | 1011.8 hPa | 1.27 mm | - | - | - |
| 1777514445 | 19.44° C | 93% | 1011.7 hPa | 0.25 mm | - | - | - |
| 1777514136 | 19.44° C | 93% | 1012.2 hPa | 0 mm | - | - | - |
* Rain latest hour (hover to see other rain measurements)
** Current wind speed in m/s (hover to see current wind gust speed)